GW0980 Weather Reports


Display with metric or nautical units.
time (UTC)temp
F
wind
direction
speed
MPH
gust
MPH
rain 1hr
in
rain 24hr
in
rain mn
in
humidity
%
barometer
mb
20220702233041 68 266 11.0 18.0 0.00 0.00 0.00 67 1013.5
20220702232529 69 289 9.0 18.0 0.00 0.00 0.00 66 1013.5
20220702232026 69 293 10.0 16.0 0.00 0.00 0.00 66 1013.6
20220702231537 69 271 7.0 12.0 0.00 0.00 0.00 68 1013.6
20220702231029 68 282 5.0 11.0 0.00 0.00 0.00 68 1013.6
20220702230529 67 265 6.0 11.0 0.00 0.00 0.00 68 1013.6
20220702230046 68 266 6.0 11.0 0.00 0.00 0.00 66 1013.5
20220702225526 68 265 3.0 10.0 0.00 0.00 0.00 69 1013.7
20220702225026 67 265 4.0 10.0 0.00 0.00 0.00 69 1013.7
20220702224539 67 266 4.0 8.0 0.00 0.00 0.00 69 1013.7
20220702224027 67 264 4.0 10.0 0.00 0.00 0.00 69 1013.7
20220702223527 67 245 5.0 10.0 0.00 0.00 0.00 69 1013.7
20220702223037 67 299 5.0 15.0 0.00 0.00 0.00 68 1013.8
20220702222527 67 252 7.0 15.0 0.00 0.00 0.00 68 1013.8
20220702222025 67 272 10.0 15.0 0.00 0.00 0.00 67 1013.9
20220702221540 68 247 7.0 15.0 0.00 0.00 0.00 67 1013.9
20220702221026 66 275 8.0 15.0 0.00 0.00 0.00 69 1013.9
20220702220526 66 276 7.0 15.0 0.00 0.00 0.00 68 1014.1
20220702220040 66 246 6.0 10.0 0.00 0.00 0.00 70 1013.9
20220702215526 66 257 4.0 10.0 0.00 0.00 0.00 71 1014.0
20220702215030 66 276 4.0 10.0 0.00 0.00 0.00 70 1013.9
20220702214540 66 275 6.0 13.0 0.00 0.00 0.00 70 1013.9
20220702214026 66 266 5.0 13.0 0.00 0.00 0.00 69 1014.1
20220702213525 66 269 7.0 11.0 0.00 0.00 0.00 69 1014.1
20220702213035 67 252 7.0 12.0 0.00 0.00 0.00 68 1014.1
20220702212528 66 278 8.0 12.0 0.00 0.00 0.00 71 1014.1
20220702212027 65 271 6.0 10.0 0.00 0.00 0.00 72 1014.1
20220702211543 64 271 6.0 14.0 0.00 0.00 0.00 72 1014.2
20220702211029 64 255 7.0 14.0 0.00 0.00 0.00 72 1014.2
20220702210526 64 225 5.0 13.0 0.00 0.00 0.00 73 1014.3
20220702210041 63 259 8.0 13.0 0.00 0.00 0.00 73 1014.3
20220702205526 64 256 6.0 15.0 0.00 0.00 0.00 71 1014.3
20220702205026 64 269 8.0 18.0 0.00 0.00 0.00 71 1014.3
20220702204543 64 258 8.0 18.0 0.00 0.00 0.00 71 1014.2
20220702204030 65 269 9.0 18.0 0.00 0.00 0.00 70 1014.5
20220702203527 65 257 3.0 11.0 0.00 0.00 0.00 72 1014.4
20220702203037 65 264 4.0 11.0 0.00 0.00 0.00 70 1014.3
20220702202527 66 276 4.0 11.0 0.00 0.00 0.00 70 1014.3
20220702202030 66 255 5.0 8.0 0.00 0.00 0.00 69 1014.4
20220702201607 66 252 3.0 8.0 0.00 0.00 0.00 71 1014.4
20220702201027 65 283 4.0 11.0 0.00 0.00 0.00 70 1014.4
20220702200528 65 253 5.0 11.0 0.00 0.00 0.00 71 1014.4
20220702200044 66 281 5.0 11.0 0.00 0.00 0.00 69 1014.4
20220702195525 65 241 3.0 9.0 0.00 0.00 0.00 71 1014.4
20220702195026 65 283 5.0 9.0 0.00 0.00 0.00 71 1014.5
20220702194543 65 228 4.0 8.0 0.00 0.00 0.00 73 1014.4
20220702194025 64 274 3.0 8.0 0.00 0.00 0.00 73 1014.4
20220702193528 63 282 3.0 8.0 0.00 0.00 0.00 74 1014.5
20220702193037 63 270 2.0 8.0 0.00 0.00 0.00 74 1014.6
20220702192528 63 262 4.0 8.0 0.00 0.00 0.00 73 1014.7
20220702192026 63 274 4.0 9.0 0.00 0.00 0.00 73 1014.7
20220702191544 63 272 5.0 12.0 0.00 0.00 0.00 74 1014.7
20220702191028 63 263 6.0 12.0 0.00 0.00 0.00 73 1014.8
20220702190527 63 278 7.0 11.0 0.00 0.00 0.00 72 1014.9
20220702190040 64 264 6.0 9.0 0.00 0.00 0.00 71 1014.9
20220702185528 64 243 4.0 8.0 0.00 0.00 0.00 71 1014.9
20220702185025 64 285 4.0 8.0 0.00 0.00 0.00 70 1014.9
20220702184538 64 217 3.0 5.0 0.00 0.00 0.00 72 1015.0
20220702184025 64 293 1.0 4.0 0.00 0.00 0.00 72 1015.1
20220702183530 63 204 1.0 4.0 0.00 0.00 0.00 73 1015.1
20220702183042 63 271 2.0 5.0 0.00 0.00 0.00 73 1015.2
20220702182526 62 57 1.0 5.0 0.00 0.00 0.00 76 1015.3
20220702182026 61 274 2.0 5.0 0.00 0.00 0.00 75 1015.5
20220702181544 61 282 3.0 6.0 0.00 0.00 0.00 76 1015.5
20220702181025 61 155 1.0 7.0 0.00 0.00 0.00 76 1015.5
20220702180526 60 271 4.0 7.0 0.00 0.00 0.00 76 1015.6
20220702180040 60 258 3.0 7.0 0.00 0.00 0.00 76 1015.6
20220702175525 60 266 2.0 5.0 0.00 0.00 0.00 77 1015.6
20220702175031 59 281 3.0 5.0 0.00 0.00 0.00 78 1015.6
20220702174551 59 252 2.0 5.0 0.00 0.00 0.00 79 1015.6
20220702174025 59 280 1.0 3.0 0.00 0.00 0.00 80 1015.6
20220702173526 58 258 1.0 3.0 0.00 0.00 0.00 80 1015.6
20220702173038 58 269 2.0 4.0 0.00 0.00 0.00 80 1015.6
20220702172528 58 277 2.0 4.0 0.00 0.00 0.00 81 1015.7
20220702172025 57 279 2.0 4.0 0.00 0.00 0.00 82 1015.7
20220702171535 57 264 2.0 4.0 0.00 0.00 0.00 82 1015.8
20220702171025 57 251 2.0 3.0 0.00 0.00 0.00 82 1015.8
20220702170534 57 290 1.0 5.0 0.00 0.00 0.00 82 1015.9
20220702170039 57 271 3.0 5.0 0.00 0.00 0.00 82 1015.8
20220702165527 57 256 3.0 5.0 0.00 0.00 0.00 82 1015.8
20220702165025 57 271 3.0 5.0 0.00 0.00 0.00 82 1015.8
20220702164543 57 262 2.0 4.0 0.00 0.00 0.00 83 1015.8
20220702164025 57 271 2.0 4.0 0.00 0.00 0.00 82 1015.8
20220702163525 56 269 2.0 4.0 0.00 0.00 0.00 82 1015.9
20220702163040 57 295 2.0 7.0 0.00 0.00 0.00 83 1015.9
20220702162525 56 284 5.0 7.0 0.00 0.00 0.00 83 1015.8
20220702162032 56 274 2.0 6.0 0.00 0.00 0.00 84 1016.0
20220702161547 56 270 4.0 6.0 0.00 0.00 0.00 84 1016.0
20220702161026 56 257 2.0 5.0 0.00 0.00 0.00 85 1016.1
20220702160526 56 0 0.0 3.0 0.00 0.00 0.00 85 1016.0
20220702160043 55 267 1.0 3.0 0.00 0.00 0.00 86 1016.1
20220702155525 55 266 2.0 3.0 0.00 0.00 0.00 86 1016.1
20220702155026 55 270 1.0 2.0 0.00 0.00 0.00 88 1016.2
20220702154535 55 265 0.0 1.0 0.00 0.00 0.00 88 1016.2
20220702154025 54 0 0.0 2.0 0.00 0.00 0.00 88 1016.2
20220702153527 54 266 1.0 2.0 0.00 0.00 0.00 88 1016.2
20220702153040 54 274 0.0 1.0 0.00 0.00 0.00 89 1016.1
20220702152528 54 260 0.0 1.0 0.00 0.00 0.00 89 1016.2
20220702152028 54 0 0.0 1.0 0.00 0.00 0.00 89 1016.3
20220702151541 53 0 0.0 1.0 0.00 0.00 0.00 90 1016.3
20220702151028 53 0 0.0 0.0 0.00 0.00 0.00 90 1016.4
20220702150531 53 0 0.0 1.0 0.00 0.00 0.00 90 1016.2
20220702150039 53 0 0.0 1.0 0.00 0.00 0.00 90 1016.3
20220702145527 53 0 0.0 1.0 0.00 0.00 0.00 90 1016.3
20220702145028 52 264 0.0 1.0 0.00 0.00 0.00 90 1016.4
20220702144548 52 0 0.0 1.0 0.00 0.00 0.00 90 1016.3
20220702144033 52 263 0.0 1.0 0.00 0.00 0.00 90 1016.3
20220702143528 52 0 0.0 1.0 0.00 0.00 0.00 90 1016.3
20220702143046 52 0 0.0 1.0 0.00 0.00 0.00 90 1016.3
20220702142531 52 0 0.0 1.0 0.00 0.00 0.00 90 1016.3
20220702142030 51 264 0.0 1.0 0.00 0.00 0.00 90 1016.4
20220702141547 51 265 0.0 1.0 0.00 0.00 0.00 90 1016.3
20220702141030 51 265 0.0 1.0 0.00 0.00 0.00 91 1016.2
20220702140531 51 0 0.0 1.0 0.00 0.00 0.00 91 1016.3
20220702140048 51 265 0.0 1.0 0.00 0.00 0.00 91 1016.3
20220702135527 50 265 0.0 1.0 0.00 0.00 0.00 91 1016.4
20220702135026 50 0 0.0 2.0 0.00 0.00 0.00 91 1016.4
20220702134540 50 266 0.0 2.0 0.00 0.00 0.00 90 1016.4
20220702134030 50 259 1.0 2.0 0.00 0.00 0.00 90 1016.4
20220702133527 50 269 0.0 2.0 0.00 0.00 0.00 90 1016.4
20220702133040 50 269 1.0 2.0 0.00 0.00 0.00 91 1016.5
20220702132526 50 0 0.0 1.0 0.00 0.00 0.00 91 1016.5
20220702132026 49 266 0.0 1.0 0.00 0.00 0.00 90 1016.5
20220702131546 49 0 0.0 1.0 0.00 0.00 0.00 90 1016.5
20220702131028 49 267 0.0 1.0 0.00 0.00 0.00 90 1016.6
20220702130526 49 267 0.0 1.0 0.00 0.00 0.00 90 1016.5
20220702130034 49 267 0.0 1.0 0.00 0.00 0.00 90 1016.5
20220702125531 49 267 0.0 1.0 0.00 0.00 0.00 90 1016.5
20220702125026 49 267 0.0 1.0 0.00 0.00 0.00 89 1016.4
20220702124541 49 0 0.0 1.0 0.00 0.00 0.00 89 1016.4
20220702124028 49 0 0.0 1.0 0.00 0.00 0.00 90 1016.4
20220702123530 49 0 0.0 1.0 0.00 0.00 0.00 90 1016.4
20220702123034 49 0 0.0 2.0 0.00 0.00 0.00 91 1016.4
20220702122532 49 267 0.0 2.0 0.00 0.00 0.00 89 1016.4
20220702122025 49 269 0.0 2.0 0.00 0.00 0.00 89 1016.4
20220702121542 49 270 1.0 2.0 0.00 0.00 0.00 88 1016.5
20220702121029 50 269 1.0 3.0 0.00 0.00 0.00 88 1016.5
20220702120528 51 269 2.0 3.0 0.00 0.00 0.00 88 1016.5
20220702120047 51 264 2.0 3.0 0.00 0.00 0.00 90 1016.5
20220702115529 51 283 1.0 3.0 0.00 0.00 0.00 91 1016.4
20220702115025 50 277 1.0 3.0 0.00 0.00 0.00 90 1016.3
20220702114534 50 259 2.0 3.0 0.00 0.00 0.00 87 1016.3
20220702114025 52 259 1.0 3.0 0.00 0.00 0.00 87 1016.4
20220702113531 52 262 1.0 3.0 0.00 0.00 0.00 88 1016.4
20220702113048 53 258 1.0 3.0 0.00 0.00 0.00 88 1016.4
20220702112527 53 285 2.0 3.0 0.00 0.00 0.00 88 1016.4
20220702112025 53 282 2.0 4.0 0.00 0.00 0.00 88 1016.4
20220702111534 53 283 1.0 4.0 0.00 0.00 0.00 88 1016.4
20220702111027 53 286 1.0 5.0 0.00 0.00 0.00 88 1016.5
20220702110525 53 264 2.0 5.0 0.00 0.00 0.00 88 1016.4
20220702110037 53 264 2.0 3.0 0.00 0.00 0.00 88 1016.4
20220702105528 53 278 1.0 3.0 0.00 0.00 0.00 88 1016.4
20220702105029 53 279 2.0 3.0 0.00 0.00 0.00 88 1016.4
20220702104543 53 260 1.0 3.0 0.00 0.00 0.00 88 1016.4
20220702104028 53 269 2.0 6.0 0.00 0.00 0.00 87 1016.4
20220702103525 53 277 3.0 7.0 0.00 0.00 0.00 87 1016.4
20220702103045 53 282 4.0 7.0 0.00 0.00 0.00 87 1016.5
20220702102526 53 283 3.0 7.0 0.00 0.00 0.00 87 1016.5
20220702102025 54 277 4.0 7.0 0.00 0.00 0.00 87 1016.6
20220702101537 53 251 3.0 7.0 0.00 0.00 0.00 87 1016.5
20220702101029 54 250 4.0 8.0 0.00 0.00 0.00 87 1016.6
20220702100531 54 264 4.0 8.0 0.00 0.00 0.00 87 1016.6
20220702100035 54 269 5.0 8.0 0.00 0.00 0.00 87 1016.6
20220702095526 54 265 5.0 8.0 0.00 0.00 0.00 87 1016.6
20220702095029 54 273 5.0 8.0 0.00 0.00 0.00 87 1016.6
20220702094532 54 281 4.0 8.0 0.00 0.00 0.00 87 1016.7
20220702094029 54 288 5.0 8.0 0.00 0.00 0.00 87 1016.7
20220702093527 54 282 4.0 8.0 0.00 0.00 0.00 87 1016.6
20220702093035 54 290 5.0 9.0 0.00 0.00 0.00 87 1016.6
20220702092526 54 279 6.0 9.0 0.00 0.00 0.00 87 1016.7
20220702092028 54 261 6.0 9.0 0.00 0.00 0.00 87 1016.7
20220702091534 54 288 6.0 9.0 0.00 0.00 0.00 87 1016.6
20220702091027 54 264 5.0 11.0 0.00 0.00 0.00 87 1016.6
20220702090530 54 268 6.0 11.0 0.00 0.00 0.00 86 1016.6
20220702090039 54 277 7.0 11.0 0.00 0.00 0.00 86 1016.6
20220702085526 54 276 7.0 11.0 0.00 0.00 0.00 86 1016.6
20220702085029 54 295 6.0 10.0 0.00 0.00 0.00 86 1016.6
20220702084537 54 265 6.0 9.0 0.00 0.00 0.00 86 1016.7
20220702084024 54 273 6.0 9.0 0.00 0.00 0.00 86 1016.7
20220702083529 54 285 5.0 9.0 0.00 0.00 0.00 86 1016.6
20220702083037 55 276 6.0 10.0 0.00 0.00 0.00 86 1016.7
20220702082528 55 292 6.0 10.0 0.00 0.00 0.00 86 1016.7
20220702082029 55 239 7.0 11.0 0.00 0.00 0.00 86 1016.7
20220702081539 55 259 6.0 11.0 0.00 0.00 0.00 86 1016.7
20220702081026 55 286 5.0 9.0 0.00 0.00 0.00 86 1016.7
20220702080529 55 280 6.0 12.0 0.00 0.00 0.00 85 1016.7
20220702080034 55 256 7.0 12.0 0.00 0.00 0.00 85 1016.7
20220702075528 55 281 7.0 12.0 0.00 0.00 0.00 85 1016.7
20220702075028 55 281 7.0 12.0 0.00 0.00 0.00 85 1016.7
20220702074539 55 268 7.0 15.0 0.00 0.00 0.00 85 1016.8
20220702074027 55 283 8.0 15.0 0.00 0.00 0.00 85 1016.7
20220702073529 55 263 8.0 14.0 0.00 0.00 0.00 85 1016.8
20220702073041 55 291 10.0 14.0 0.00 0.00 0.00 85 1016.8
20220702072527 55 277 7.0 14.0 0.00 0.00 0.00 85 1016.8
20220702072027 55 283 9.0 14.0 0.00 0.00 0.00 85 1016.8
20220702071542 55 275 9.0 13.0 0.00 0.00 0.00 85 1016.8
20220702071029 55 250 9.0 13.0 0.00 0.00 0.00 85 1016.8
20220702070535 55 278 8.0 15.0 0.00 0.00 0.00 85 1016.9
20220702070039 55 248 9.0 15.0 0.00 0.00 0.00 85 1016.8
20220702065528 55 265 10.0 14.0 0.00 0.00 0.00 85 1016.9
20220702065028 55 288 9.0 14.0 0.00 0.00 0.00 85 1017.0
20220702064534 55 272 8.0 16.0 0.00 0.00 0.00 85 1017.0
20220702064029 55 281 9.0 16.0 0.00 0.00 0.00 85 1017.0
20220702063533 55 278 9.0 15.0 0.00 0.00 0.00 85 1017.0
20220702063039 55 267 10.0 16.0 0.00 0.00 0.00 85 1017.0
20220702062526 55 248 10.0 16.0 0.00 0.00 0.00 85 1017.0
20220702062026 55 250 9.0 15.0 0.00 0.00 0.00 85 1016.9
20220702061545 55 290 10.0 15.0 0.00 0.00 0.00 85 1016.9
20220702061028 55 262 10.0 15.0 0.00 0.00 0.00 85 1016.9
20220702060528 55 277 9.0 15.0 0.00 0.00 0.00 85 1016.9
20220702060042 55 266 10.0 16.0 0.00 0.00 0.00 85 1017.0
20220702055528 56 267 9.0 16.0 0.00 0.00 0.00 84 1016.9
20220702055028 56 262 9.0 19.0 0.00 0.00 0.00 85 1017.0
20220702054534 56 275 10.0 19.0 0.00 0.00 0.00 84 1017.0
20220702054029 56 239 12.0 17.0 0.00 0.00 0.00 84 1017.0
20220702053527 56 270 10.0 17.0 0.00 0.00 0.00 84 1017.0
20220702053045 56 264 10.0 18.0 0.00 0.00 0.00 84 1017.0
20220702052526 56 259 12.0 18.0 0.00 0.00 0.00 84 1017.0
20220702052026 56 295 11.0 16.0 0.00 0.00 0.00 84 1017.0
20220702051541 56 288 9.0 18.0 0.00 0.00 0.00 84 1017.0
20220702051030 56 275 10.0 18.0 0.00 0.00 0.00 84 1017.1
20220702050526 56 271 11.0 17.0 0.00 0.00 0.00 83 1017.1
20220702050044 56 278 10.0 18.0 0.00 0.00 0.00 83 1017.1
20220702045530 56 295 12.0 20.0 0.00 0.00 0.00 83 1017.0
20220702045027 57 285 13.0 20.0 0.00 0.00 0.00 83 1017.0
20220702044548 57 280 11.0 18.0 0.00 0.00 0.00 83 1017.0
20220702044029 57 276 11.0 18.0 0.00 0.00 0.00 82 1017.0
20220702043526 57 274 7.0 18.0 0.00 0.00 0.00 82 1016.9
20220702043045 57 283 10.0 19.0 0.00 0.00 0.00 82 1016.9
20220702042528 57 267 11.0 19.0 0.00 0.00 0.00 82 1016.8
20220702042032 57 274 13.0 18.0 0.00 0.00 0.00 82 1016.7
20220702041543 57 289 9.0 18.0 0.00 0.00 0.00 82 1016.6
20220702041029 57 281 11.0 18.0 0.00 0.00 0.00 82 1016.7
20220702040527 58 283 10.0 17.0 0.00 0.00 0.00 81 1016.6
20220702040044 58 261 9.0 17.0 0.00 0.00 0.00 81 1016.5
20220702035529 58 253 11.0 16.0 0.00 0.00 0.00 81 1016.4
20220702035028 58 267 10.0 17.0 0.00 0.00 0.00 81 1016.4
20220702034538 59 271 8.0 17.0 0.00 0.00 0.00 80 1016.4
20220702034027 59 283 10.0 17.0 0.00 0.00 0.00 79 1016.4
20220702033528 59 271 9.0 18.0 0.00 0.00 0.00 79 1016.5
20220702033039 59 259 11.0 19.0 0.00 0.00 0.00 79 1016.4
20220702032528 59 283 10.0 19.0 0.00 0.00 0.00 79 1016.5
20220702032029 60 278 12.0 22.0 0.00 0.00 0.00 79 1016.5
20220702031604 60 297 13.0 22.0 0.00 0.00 0.00 78 1016.5
20220702031030 60 249 9.0 18.0 0.00 0.00 0.00 77 1016.6
20220702030531 61 284 10.0 19.0 0.00 0.00 0.00 76 1016.5
20220702030037 61 288 8.0 19.0 0.00 0.00 0.00 76 1016.6
20220702025529 61 280 9.0 19.0 0.00 0.00 0.00 76 1016.5
20220702025031 61 255 9.0 18.0 0.00 0.00 0.00 76 1016.6
20220702024538 62 284 10.0 20.0 0.00 0.00 0.00 75 1016.6
20220702024027 62 271 12.0 20.0 0.00 0.00 0.00 75 1016.6
20220702023528 62 278 11.0 20.0 0.00 0.00 0.00 75 1016.6
20220702023039 62 278 12.0 20.0 0.00 0.00 0.00 74 1016.6
20220702022527 62 287 11.0 19.0 0.00 0.00 0.00 74 1016.6
20220702022026 63 267 10.0 17.0 0.00 0.00 0.00 73 1016.5
20220702021541 63 284 8.0 16.0 0.00 0.00 0.00 73 1016.5
20220702021026 63 293 10.0 17.0 0.00 0.00 0.00 73 1016.5
20220702020527 64 266 10.0 17.0 0.00 0.00 0.00 73 1016.6
20220702020046 64 276 10.0 17.0 0.00 0.00 0.00 72 1016.6
20220702015528 64 287 11.0 17.0 0.00 0.00 0.00 71 1016.7
20220702015027 64 293 9.0 17.0 0.00 0.00 0.00 72 1016.7
20220702014542 65 304 10.0 19.0 0.00 0.00 0.00 72 1016.6
20220702014030 65 261 9.0 19.0 0.00 0.00 0.00 72 1016.6
20220702013527 66 278 10.0 19.0 0.00 0.00 0.00 70 1016.7
20220702013034 66 257 8.0 20.0 0.00 0.00 0.00 70 1016.7
20220702012527 65 283 12.0 20.0 0.00 0.00 0.00 71 1016.7
20220702012027 66 284 9.0 20.0 0.00 0.00 0.00 71 1016.7
20220702011538 66 262 12.0 17.0 0.00 0.00 0.00 70 1016.7
20220702011028 66 276 9.0 16.0 0.00 0.00 0.00 70 1016.8
20220702010527 66 295 9.0 20.0 0.00 0.00 0.00 69 1016.9
20220702010031 66 265 9.0 20.0 0.00 0.00 0.00 69 1016.9
20220702005526 66 249 12.0 20.0 0.00 0.00 0.00 70 1016.8
20220702005026 67 266 8.0 18.0 0.00 0.00 0.00 70 1016.9
20220702004537 67 252 11.0 21.0 0.00 0.00 0.00 69 1016.9
20220702004026 66 264 12.0 21.0 0.00 0.00 0.00 70 1016.9
20220702003527 67 276 12.0 20.0 0.00 0.00 0.00 69 1016.9
20220702003045 67 271 13.0 19.0 0.00 0.00 0.00 69 1016.9
20220702002529 67 262 12.0 19.0 0.00 0.00 0.00 68 1017.1
20220702002031 67 257 11.0 21.0 0.00 0.00 0.00 69 1017.2
20220702001539 67 270 12.0 25.0 0.00 0.00 0.00 70 1017.1
20220702001030 67 293 14.0 25.0 0.00 0.00 0.00 70 1017.2
20220702000526 67 265 10.0 20.0 0.00 0.00 0.00 69 1017.3
20220702000044 68 249 8.0 19.0 0.00 0.00 0.00 70 1017.4
20220701235526 68 248 11.0 19.0 0.00 0.00 0.00 69 1017.4
20220701235030 68 293 12.0 19.0 0.00 0.00 0.00 68 1017.4
20220701234545 68 255 12.0 19.0 0.00 0.00 0.00 68 1017.5
20220701234026 69 255 10.0 18.0 0.00 0.00 0.00 67 1017.5
20220701233526 69 263 11.0 22.0 0.00 0.00 0.00 68 1017.5